User: anonymous   Login
Location: Unspecified
(0.0000°N, 0.0000°E)
Time: 11:58:25
(UTC+00:00)
Language:

DSP F18 - Orbit

View from above orbital plane
View from above orbital plane
View from above satellite
View from above satellite

Ground track
Ground track

The orbit data is extracted from the following two-line orbital elements,

1 24737U 97008A   18282.00024388 0.00000000  00000-0  00000-0 0    06
2 24737  13.1981  25.2036 0001000 161.3987 198.6507  1.00270000    08
Epoch (UTC): 09 October 2018 00:00:21
Eccentricity: 0.0001000
inclination: 13.1981°
perigee height: 35782 km
apogee height: 35791 km
right ascension of ascending node: 25.2036°
argument of perigee: 161.3987°
revolutions per day: 1.00270000
mean anomaly at epoch: 198.6507°
orbit number at epoch: 0

The dashed part of the orbit path shows where the satellite is in the earth's shadow,  

DLR